When you browse on this site, cookies collect data to enhance your experience and personalize the content and advertising you see.
Visit our Privacy Policy to learn more. By continuing to use the site, you agree to this use of cookies and data.
  • In United Kingdom
  • List of Countries
  • For 7 days
  • Water Temperature
  • Weather Map
  • Weather Widgets
  • user-avatar
    Login

    Hourly Weather Dofteana

    Today, 25 January, Saturday

    Time Temperature Precipitation Wind Pressure Humidity
    00:00 -1°C° 0 mm 3 mps 731 mmHg 40%
    01:00 -1°C° 0 mm 2 mps 731 mmHg 38%
    02:00 -1°C° 0 mm 2 mps 731 mmHg 37%
    03:00 -1°C° 0 mm 2 mps 731 mmHg 38%
    04:00 -2°C° 0 mm 2 mps 731 mmHg 40%
    05:00 -2°C° 0 mm 2 mps 731 mmHg 41%
    06:00 -2°C° 0 mm 2 mps 731 mmHg 44%
    07:00 -2°C° 0 mm 2 mps 731 mmHg 46%
    08:00 -3°C° 0 mm 2 mps 731 mmHg 49%
    09:00 -1°C° 0 mm 2 mps 732 mmHg 46%
    10:00 +2°C° 0 mm 2 mps 732 mmHg 42%
    11:00 +4°C° 0 mm 2 mps 732 mmHg 39%
    12:00 +5°C° 0 mm 2 mps 732 mmHg 40%
    13:00 +5°C° 0 mm 2 mps 732 mmHg 41%
    14:00 +6°C° 0 mm 2 mps 731 mmHg 42%
    15:00 +5°C° 0 mm 2 mps 731 mmHg 49%
    16:00 +4°C° 0 mm 2 mps 731 mmHg 56%
    17:00 +2°C° 0 mm 2 mps 731 mmHg 63%
    18:00 +2°C° 0 mm 2 mps 731 mmHg 66%
    19:00 +1°C° 0 mm 2 mps 732 mmHg 69%
    20:00 +1°C° 0 mm 2 mps 732 mmHg 71%
    21:00 -1°C° 0 mm 2 mps 732 mmHg 72%
    22:00 -1°C° 0 mm 2 mps 732 mmHg 73%
    23:00 -1°C° 0 mm 2 mps 732 mmHg 74%

    Tomorrow, 26 January, Sunday

    Time Temperature Precipitation Wind Pressure Humidity
    00:00 +1°C° 0 mm 1 mps 732 mmHg 74%
    01:00 +1°C° 0 mm 1 mps 732 mmHg 75%
    02:00 +1°C° 0 mm 1 mps 732 mmHg 76%
    03:00 +1°C° 0 mm 1 mps 732 mmHg 77%
    04:00 +1°C° 0 mm 1 mps 732 mmHg 77%
    05:00 +1°C° 0 mm 1 mps 732 mmHg 78%
    06:00 +1°C° 0 mm 1 mps 732 mmHg 80%
    07:00 +1°C° 0 mm 1 mps 733 mmHg 81%
    08:00 +1°C° 0 mm 1 mps 733 mmHg 83%
    09:00 +2°C° 0 mm 1 mps 733 mmHg 77%
    10:00 +4°C° 0 mm 1 mps 733 mmHg 72%
    11:00 +6°C° 0 mm 1 mps 734 mmHg 66%
    12:00 +7°C° 0 mm 1 mps 733 mmHg 64%
    13:00 +7°C° 0 mm 1 mps 733 mmHg 62%
    14:00 +8°C° 0 mm 1 mps 733 mmHg 60%
    15:00 +7°C° 0 mm 1 mps 732 mmHg 66%
    16:00 +5°C° 0 mm 1 mps 732 mmHg 72%
    17:00 +4°C° 0 mm 1 mps 732 mmHg 77%
    18:00 +3°C° 0 mm 1 mps 732 mmHg 80%
    19:00 +3°C° 0 mm 1 mps 732 mmHg 82%
    20:00 +3°C° 0 mm 1 mps 732 mmHg 84%
    21:00 +3°C° 0 mm 1 mps 732 mmHg 85%
    22:00 +3°C° 0 mm 1 mps 732 mmHg 85%
    23:00 +3°C° 0 mm 1 mps 731 mmHg 85%

    Day after tomorrow, 27 January, Monday

    Time Temperature Precipitation Wind Pressure Humidity
    00:00 +3°C° 0 mm 1 mps 731 mmHg 85%
    01:00 +3°C° 0 mm 1 mps 731 mmHg 85%
    02:00 +3°C° 0 mm 1 mps 731 mmHg 85%
    03:00 +2°C° 0 mm 1 mps 730 mmHg 85%
    04:00 +2°C° 0 mm 1 mps 730 mmHg 85%
    05:00 +2°C° 0 mm 1 mps 730 mmHg 85%
    06:00 +2°C° 0 mm 1 mps 730 mmHg 85%
    07:00 +2°C° 0 mm 1 mps 729 mmHg 85%
    08:00 +2°C° 0 mm 1 mps 729 mmHg 85%
    09:00 +4°C° 0 mm 1 mps 729 mmHg 80%
    10:00 +5°C° 0 mm 1 mps 729 mmHg 74%
    11:00 +7°C° 0 mm 1 mps 729 mmHg 68%
    12:00 +7°C° 0 mm 1 mps 729 mmHg 68%
    13:00 +8°C° 0 mm 1 mps 728 mmHg 68%
    14:00 +8°C° 0 mm 1 mps 728 mmHg 68%
    15:00 +7°C° 0 mm 1 mps 728 mmHg 72%
    16:00 +6°C° 0 mm 1 mps 727 mmHg 77%
    17:00 +5°C° 0 mm 1 mps 727 mmHg 81%
    18:00 +5°C° 0 mm 1 mps 727 mmHg 83%
    19:00 +5°C° 0 mm 1 mps 727 mmHg 84%
    20:00 +4°C° 0 mm 1 mps 727 mmHg 85%
    21:00 +4°C° 0 mm 1 mps 727 mmHg 86%
    22:00 +4°C° 0 mm 1 mps 727 mmHg 88%
    23:00 +4°C° 0 mm 1 mps 727 mmHg 89%

    28 January, Tuesday

    Time Temperature Precipitation Wind Pressure Humidity
    00:00 +4°C° 0 mm 1 mps 726 mmHg 90%
    01:00 +4°C° 0 mm 1 mps 726 mmHg 90%
    02:00 +4°C° 0 mm 1 mps 726 mmHg 90%
    03:00 +4°C° 0 mm 1 mps 726 mmHg 91%
    04:00 +3°C° 0 mm 1 mps 725 mmHg 91%
    05:00 +3°C° 0 mm 1 mps 725 mmHg 91%
    06:00 +3°C° 0 mm 1 mps 725 mmHg 91%
    07:00 +3°C° 0 mm 1 mps 725 mmHg 91%
    08:00 +3°C° 0 mm 1 mps 725 mmHg 91%
    09:00 +4°C° 0 mm 1 mps 725 mmHg 85%
    10:00 +5°C° 0 mm 1 mps 725 mmHg 78%
    11:00 +7°C° 0 mm 1 mps 725 mmHg 72%
    12:00 +8°C° 0 mm 1 mps 724 mmHg 69%
    13:00 +8°C° 0 mm 1 mps 724 mmHg 66%
    14:00 +8°C° 0 mm 2 mps 723 mmHg 63%
    15:00 +7°C° 0 mm 2 mps 723 mmHg 69%
    16:00 +7°C° 0 mm 1 mps 723 mmHg 75%
    17:00 +5°C° 0 mm 1 mps 722 mmHg 80%
    18:00 +5°C° 0 mm 1 mps 722 mmHg 80%
    19:00 +5°C° 0 mm 1 mps 722 mmHg 80%
    20:00 +5°C° 0 mm 1 mps 722 mmHg 80%
    21:00 +5°C° 0 mm 1 mps 722 mmHg 80%
    22:00 +5°C° 0 mm 1 mps 721 mmHg 80%
    23:00 +5°C° 0 mm 1 mps 721 mmHg 80%

    29 January, Wednesday

    Time Temperature Precipitation Wind Pressure Humidity
    00:00 +5°C° 0 mm 1 mps 721 mmHg 81%
    01:00 +4°C° 0 mm 1 mps 720 mmHg 82%
    02:00 +4°C° 0 mm 1 mps 719 mmHg 83%
    03:00 +3°C° 0 mm 2 mps 719 mmHg 83%
    04:00 +3°C° 0 mm 2 mps 718 mmHg 83%
    05:00 +3°C° 0 mm 2 mps 718 mmHg 83%
    06:00 +2°C° 0.1 mm 3 mps 718 mmHg 83%
    07:00 +2°C° 0.1 mm 3 mps 718 mmHg 83%
    08:00 +3°C° 0.1 mm 4 mps 718 mmHg 83%
    09:00 +2°C° 0 mm 6 mps 718 mmHg 77%
    10:00 +3°C° 0 mm 7 mps 718 mmHg 71%
    11:00 +3°C° 0 mm 9 mps 719 mmHg 65%
    12:00 +3°C° 0 mm 9 mps 719 mmHg 61%
    13:00 +3°C° 0 mm 9 mps 719 mmHg 57%
    14:00 +4°C° 0 mm 8 mps 719 mmHg 53%
    15:00 +2°C° 0 mm 8 mps 720 mmHg 52%
    16:00 +2°C° 0 mm 7 mps 721 mmHg 51%
    17:00 +1°C° 0 mm 6 mps 721 mmHg 49%
    18:00 0°C° 0 mm 5 mps 721 mmHg 52%
    19:00 0°C° 0 mm 4 mps 721 mmHg 54%
    20:00 0°C° 0 mm 3 mps 721 mmHg 57%
    21:00 0°C° 0 mm 3 mps 722 mmHg 56%
    22:00 0°C° 0 mm 3 mps 722 mmHg 56%
    23:00 0°C° 0 mm 3 mps 722 mmHg 56%

    30 January, Thursday

    Time Temperature Precipitation Wind Pressure Humidity
    00:00 0°C° 0 mm 3 mps 722 mmHg 58%
    01:00 0°C° 0 mm 3 mps 722 mmHg 60%
    02:00 0°C° 0 mm 3 mps 722 mmHg 62%
    03:00 -1°C° 0 mm 4 mps 722 mmHg 67%
    04:00 -1°C° 0 mm 4 mps 722 mmHg 71%
    05:00 -1°C° 0 mm 4 mps 722 mmHg 76%
    06:00 -1°C° 0 mm 4 mps 722 mmHg 75%
    07:00 0°C° 0 mm 3 mps 722 mmHg 74%
    08:00 -1°C° 0 mm 3 mps 723 mmHg 73%
    09:00 0°C° 0 mm 3 mps 723 mmHg 65%
    10:00 +1°C° 0 mm 3 mps 724 mmHg 57%
    11:00 +2°C° 0 mm 3 mps 724 mmHg 50%
    12:00 +1°C° 0 mm 4 mps 724 mmHg 49%
    13:00 +3°C° 0 mm 4 mps 724 mmHg 49%
    14:00 +3°C° 0 mm 4 mps 724 mmHg 48%
    15:00 +2°C° 0 mm 3 mps 725 mmHg 54%
    16:00 +2°C° 0 mm 2 mps 725 mmHg 61%
    17:00 +1°C° 0 mm 2 mps 725 mmHg 67%
    18:00 -1°C° 0 mm 2 mps 726 mmHg 71%
    19:00 -1°C° 0 mm 2 mps 726 mmHg 75%
    20:00 -2°C° 0 mm 2 mps 727 mmHg 79%
    21:00 -2°C° 0 mm 2 mps 727 mmHg 80%
    22:00 -2°C° 0 mm 2 mps 727 mmHg 81%
    23:00 -3°C° 0 mm 2 mps 727 mmHg 82%
    Show more